Gary, IN

7:03 AM CST on February 23, 2017 (GMT -0600)
Gary / Chicago

Weather History for KGYY - December, 2013

Change the Weather History Date:

Friday, December 20, 2013

  Actual Average Record
Temperature  
Mean Temperature 38 °F -  
Max Temperature 42 °F 35 °F 69 °F (2010)
Min Temperature 35 °F 22 °F -7 °F (1963)
Degree Days  
Heating Degree Days 26    
Moisture  
Dew Point 36 °F    
Average Humidity 95    
Maximum Humidity 100    
Minimum Humidity 93    
Precipitation  
Precipitation 0.05 in - - ()
Sea Level Pressure  
Sea Level Pressure 29.77 in    
Wind  
Wind Speed 3 mph (NW)    
Max Wind Speed 14 mph    
Max Gust Speed -    
Visibility 1 miles    
Events Rain    
Averages and records for this station are not official NWS values.
T = Trace of Precipitation, MM = Missing Value Source: NWS Daily Summary

Daily Weather History Graph

Daily Weather History Graph

Search for Another Location

Airport or City:

Trip Planner

Search our weather history database for the weather conditions in past years. The results will help you decide how hot, cold, wet, or windy it might be!

Date:

Astronomy

Dec. 20, 2013 Rise Set
Actual Time 7:12 AM CST 4:22 PM CST
Civil Twilight 6:41 AM CST 4:53 PM CST
Nautical Twilight 6:06 AM CST 5:28 PM CST
Astronomical Twilight 5:32 AM CST 6:02 PM CST
Moon 7:44 PM CST (12/20) 9:04 AM CST (12/20)
Length of Visible Light 10h 12m
Length of Day
9h 09m
Waning Gibbous, 90% of the Moon is Illuminated
Dec 20
Waning Gibbous
Dec 25
Last Quarter
Jan 1
New
Jan 7
First Quarter
Jan 15
Full

Hourly Weather History & Observations

Time (CST) Temp. Windchill Dew Point Humidity Pressure Visibility Wind Dir Wind Speed Gust Speed Precip Events Conditions
12:15 AM 39.7 °F - 38.3 °F 95% 29.79 in 0.5 mi Calm Calm - 0.01 in Rain Rain
12:35 AM 39.9 °F - 38.3 °F 94% 29.79 in 0.8 mi Calm Calm - 0.01 in   Drizzle
12:55 AM 40.1 °F - 38.5 °F 94% 29.78 in 0.5 mi Calm Calm - 0.02 in   Heavy Drizzle
1:15 AM 38.8 °F - 37.4 °F 95% 29.78 in 0.2 mi Calm Calm - 0.01 in   Heavy Drizzle
1:35 AM 38.7 °F - 37.2 °F 95% 29.77 in 0.2 mi Calm Calm - 0.01 in   Drizzle
1:55 AM 39.7 °F - 38.3 °F 95% 29.77 in 0.2 mi Calm Calm - 0.01 in   Drizzle
2:15 AM 40.1 °F - 38.5 °F 94% 29.78 in 0.2 mi Calm Calm - N/A   Drizzle
2:35 AM 39.2 °F - 37.6 °F 94% 29.77 in 0.2 mi Calm Calm - 0.02 in Rain Heavy Rain
2:55 AM 41.0 °F - 39.4 °F 94% 29.77 in 0.8 mi Calm Calm - 0.02 in   Overcast
3:15 AM 41.9 °F 40.0 °F 40.3 °F 94% 29.76 in 1.5 mi South 3.5 mph - N/A   Overcast
3:35 AM 42.3 °F - 41.0 °F 95% 29.75 in 1.8 mi Calm Calm - N/A   Overcast
4:45 AM 39.2 °F 35.9 °F 37.4 °F 93% 29.77 in 0.2 mi NNW 4.6 mph - N/A   Drizzle
5:45 AM 37.4 °F 32.1 °F 35.6 °F 93% 29.77 in 1.0 mi NNW 6.9 mph - N/A   Drizzle
6:45 AM 37.4 °F 32.1 °F 35.6 °F 93% 29.77 in 1.0 mi NNW 6.9 mph - N/A   Drizzle
7:45 AM 37.4 °F 29.8 °F 35.6 °F 93% 29.79 in 1.0 mi North 11.5 mph - N/A Rain Rain
8:45 AM 37.4 °F 29.8 °F 35.6 °F 93% 29.80 in 1.5 mi NNW 11.5 mph - N/A   Overcast
9:45 AM 37.4 °F 30.8 °F 35.6 °F 93% 29.80 in 1.5 mi North 9.2 mph - N/A   Overcast
10:45 AM 37.4 °F 31.4 °F 35.6 °F 93% 29.79 in 1.5 mi NNW 8.1 mph - N/A   Overcast
12:45 PM 37.4 °F 32.1 °F 35.6 °F 93% 29.74 in 1.5 mi North 6.9 mph - N/A   Overcast
1:45 PM 37.4 °F 32.1 °F 35.6 °F 93% 29.74 in 1.5 mi North 6.9 mph - N/A   Overcast
2:45 PM 37.4 °F 28.9 °F 35.6 °F 93% 29.73 in 2.0 mi North 13.8 mph - N/A   Light Drizzle
3:45 PM 37.4 °F 32.8 °F 35.6 °F 93% 29.76 in 2.0 mi North 5.8 mph - N/A   Overcast
4:45 PM 37.4 °F 33.8 °F 35.6 °F 93% 29.74 in 2.0 mi North 4.6 mph - N/A Rain Light Rain
5:45 PM 37.4 °F 32.8 °F 35.6 °F 93% 29.75 in 2.0 mi North 5.8 mph - N/A   Overcast
6:45 PM 37.4 °F 31.4 °F 35.6 °F 93% 29.74 in 1.8 mi North 8.1 mph - N/A   Overcast
7:45 PM 35.6 °F 29.2 °F 35.6 °F 100% 29.76 in 1.5 mi NW 8.1 mph - N/A   Overcast
8:15 PM 36.5 °F 30.3 °F 35.6 °F 97% 29.78 in 1.5 mi NW 8.1 mph - N/A   Overcast
8:35 PM 36.5 °F 31.8 °F 35.6 °F 97% 29.77 in 1.8 mi NW 5.8 mph - N/A   Overcast
8:45 PM 35.6 °F 31.7 °F 35.6 °F 100% 29.78 in 1.8 mi NW 4.6 mph - N/A   Overcast
8:55 PM 36.5 °F - 35.4 °F 96% 29.78 in 1.5 mi Calm Calm - N/A   Overcast
9:15 PM 36.5 °F 31.8 °F 35.2 °F 95% 29.78 in 2.0 mi NW 5.8 mph - N/A   Overcast
9:35 PM 36.5 °F 32.7 °F 35.2 °F 95% 29.79 in 3.0 mi NW 4.6 mph - N/A   Overcast
9:45 PM 35.6 °F - 35.6 °F 100% 29.78 in 4.0 mi Calm Calm - N/A   Overcast
9:55 PM 36.5 °F 32.7 °F 35.2 °F 95% 29.78 in 3.0 mi NW 4.6 mph - N/A   Overcast
10:15 PM 36.5 °F 32.7 °F 35.2 °F 95% 29.78 in 3.0 mi NW 4.6 mph - N/A   Overcast
10:35 PM 36.5 °F 33.9 °F 35.2 °F 95% 29.78 in 1.5 mi West 3.5 mph - N/A   Overcast
10:55 PM 36.0 °F - 34.9 °F 96% 29.78 in 1.5 mi Calm Calm - N/A   Overcast
11:15 PM 35.8 °F 30.9 °F 34.7 °F 96% 29.79 in 1.2 mi West 5.8 mph - N/A   Overcast
11:35 PM 35.8 °F 33.0 °F 34.7 °F 96% 29.79 in 1.0 mi West 3.5 mph - N/A   Overcast
11:55 PM 35.6 °F 32.8 °F 34.7 °F 97% 29.80 in 0.8 mi West 3.5 mph - N/A   Overcast